DHL721 TJSJ-TNCM

Flight info

Callsign DHL721
Flight time 1h 9m
Altitude 7000
Route SJU RTE6 STT DCT SLUGO DCT PJM
Aircraft C208/L-SDFGR/C

Departure

Time 2026-05-06 22:17
Airport Luis Munoz Marin International Airport (TJSJ)

Arrival

Time 2026-05-06 23:26
Airport Princess Juliana International Airport (TNCM)
Time Latitude Longitude Altitude Speed Heading
2026-05-06 21:59 18.43720 -65.99419 -25 ft 0 kts 90°
2026-05-06 22:11 18.43715 -65.99414 -25 ft 3 kts 165°
2026-05-06 22:11 18.43693 -65.99448 -25 ft 10 kts 238°
2026-05-06 22:12 18.43648 -65.99520 -25 ft 13 kts 248°
2026-05-06 22:12 18.43554 -65.99549 -25 ft 18 kts 179°
2026-05-06 22:12 18.43458 -65.99571 -29 ft 9 kts 281°
2026-05-06 22:12 18.43463 -65.99671 -31 ft 18 kts 270°
2026-05-06 22:13 18.43465 -65.99828 -31 ft 24 kts 271°
2026-05-06 22:13 18.43466 -66.00021 -30 ft 29 kts 270°
2026-05-06 22:13 18.43466 -66.00254 -34 ft 34 kts 269°
2026-05-06 22:13 18.43473 -66.00510 -29 ft 33 kts 274°
2026-05-06 22:14 18.43474 -66.00718 -45 ft 28 kts 259°
2026-05-06 22:14 18.43467 -66.00936 -30 ft 31 kts 267°
2026-05-06 22:14 18.43466 -66.01116 -32 ft 21 kts 274°
2026-05-06 22:14 18.43466 -66.01288 -32 ft 24 kts 270°
2026-05-06 22:15 18.43421 -66.01360 -32 ft 11 kts 186°
2026-05-06 22:15 18.43358 -66.01313 -32 ft 11 kts 91°
2026-05-06 22:15 18.43358 -66.01302 -39 ft 0 kts 88°
2026-05-06 22:15 18.43357 -66.01255 -33 ft 23 kts 92°
2026-05-06 22:16 18.43356 -66.00935 -34 ft 63 kts 90°
2026-05-06 22:16 18.43352 -66.00359 -34 ft 92 kts 91°
2026-05-06 22:16 18.43333 -65.99640 46 ft 103 kts 92°
2026-05-06 22:16 18.43310 -65.98851 147 ft 113 kts 90°
2026-05-06 22:17 18.43399 -65.98027 288 ft 115 kts 80°
2026-05-06 22:17 18.43604 -65.97279 610 ft 105 kts 76°
2026-05-06 22:17 18.43825 -65.96528 752 ft 108 kts 78°
2026-05-06 22:17 18.44109 -65.95804 960 ft 109 kts 69°
2026-05-06 22:18 18.44476 -65.95099 1153 ft 113 kts 68°
2026-05-06 22:18 18.44782 -65.94336 1382 ft 108 kts 91°
2026-05-06 22:18 18.44877 -65.93592 1688 ft 98 kts 88°
2026-05-06 22:18 18.45028 -65.92947 1939 ft 90 kts 80°
2026-05-06 22:19 18.45187 -65.92313 2120 ft 89 kts 83°
2026-05-06 22:19 18.45365 -65.91699 2260 ft 89 kts 73°
2026-05-06 22:19 18.45588 -65.91107 2394 ft 85 kts 75°
2026-05-06 22:19 18.45806 -65.90521 2508 ft 86 kts 73°
2026-05-06 22:20 18.46018 -65.89931 2650 ft 86 kts 79°
2026-05-06 22:20 18.46229 -65.89357 2828 ft 85 kts 74°
2026-05-06 22:20 18.46435 -65.88776 2954 ft 85 kts 78°
2026-05-06 22:20 18.46644 -65.88195 3153 ft 86 kts 75°
2026-05-06 22:21 18.46855 -65.87592 3279 ft 88 kts 76°
2026-05-06 22:21 18.46998 -65.87190 3370 ft 89 kts 75°
2026-05-06 22:21 18.47219 -65.86571 3462 ft 93 kts 79°
2026-05-06 22:21 18.47462 -65.85878 3523 ft 109 kts 75°
2026-05-06 22:22 18.47744 -65.85093 3641 ft 116 kts 76°
2026-05-06 22:22 18.48026 -65.84303 3824 ft 117 kts 76°
2026-05-06 22:22 18.48306 -65.83495 3991 ft 118 kts 73°
2026-05-06 22:22 18.48602 -65.82682 4139 ft 120 kts 72°
2026-05-06 22:23 18.48900 -65.81857 4320 ft 120 kts 74°
2026-05-06 22:23 18.49189 -65.81024 4468 ft 123 kts 76°
2026-05-06 22:23 18.49494 -65.80180 4645 ft 124 kts 73°
2026-05-06 22:23 18.49796 -65.79324 4833 ft 124 kts 71°
2026-05-06 22:24 18.50098 -65.78470 4988 ft 127 kts 72°
2026-05-06 22:24 18.50424 -65.77548 5006 ft 140 kts 72°
2026-05-06 22:24 18.50780 -65.76549 5004 ft 151 kts 72°
2026-05-06 22:24 18.51161 -65.75481 5005 ft 159 kts 71°
2026-05-06 22:25 18.51551 -65.74384 5003 ft 164 kts 71°
2026-05-06 22:25 18.51960 -65.73229 5009 ft 168 kts 72°
2026-05-06 22:25 18.52366 -65.72081 5006 ft 171 kts 72°
2026-05-06 22:25 18.52780 -65.70906 5006 ft 171 kts 72°
2026-05-06 22:26 18.53197 -65.69727 4999 ft 172 kts 70°
2026-05-06 22:26 18.53617 -65.68552 5012 ft 171 kts 72°
2026-05-06 22:26 18.54031 -65.67376 5061 ft 170 kts 72°
2026-05-06 22:26 18.54428 -65.66265 5323 ft 157 kts 72°
2026-05-06 22:27 18.54809 -65.65181 5414 ft 158 kts 71°
2026-05-06 22:27 18.55193 -65.64094 5483 ft 159 kts 71°
2026-05-06 22:27 18.55581 -65.63004 5555 ft 159 kts 72°
2026-05-06 22:27 18.55945 -65.61903 5645 ft 158 kts 81°
2026-05-06 22:28 18.56056 -65.60763 5746 ft 155 kts 87°
2026-05-06 22:28 18.56176 -65.59638 5860 ft 154 kts 86°
2026-05-06 22:28 18.56298 -65.58515 5953 ft 154 kts 88°
2026-05-06 22:28 18.56417 -65.57390 6041 ft 154 kts 87°
2026-05-06 22:29 18.56538 -65.56264 6102 ft 155 kts 86°
2026-05-06 22:29 18.56658 -65.55133 6177 ft 155 kts 85°
2026-05-06 22:29 18.56777 -65.54004 6262 ft 155 kts 86°
2026-05-06 22:29 18.56898 -65.52878 6343 ft 155 kts 87°
2026-05-06 22:30 18.57017 -65.51753 6430 ft 154 kts 85°
2026-05-06 22:30 18.57134 -65.50642 6491 ft 155 kts 85°
2026-05-06 22:30 18.57255 -65.49503 6534 ft 156 kts 86°
2026-05-06 22:30 18.57375 -65.48372 6618 ft 156 kts 85°
2026-05-06 22:31 18.57495 -65.47238 6691 ft 155 kts 87°
2026-05-06 22:31 18.57611 -65.46141 6904 ft 144 kts 85°
2026-05-06 22:31 18.57721 -65.45092 6987 ft 147 kts 85°
2026-05-06 22:31 18.57836 -65.43992 6993 ft 154 kts 87°
2026-05-06 22:32 18.57956 -65.42851 7000 ft 158 kts 86°
2026-05-06 22:32 18.58080 -65.41686 7007 ft 162 kts 86°
2026-05-06 22:32 18.58204 -65.40495 7009 ft 165 kts 86°
2026-05-06 22:32 18.58330 -65.39287 7003 ft 167 kts 86°
2026-05-06 22:33 18.58462 -65.38063 7005 ft 169 kts 86°
2026-05-06 22:33 18.58593 -65.36829 7006 ft 170 kts 86°
2026-05-06 22:33 18.58720 -65.35597 7014 ft 169 kts 85°
2026-05-06 22:33 18.58851 -65.34360 7012 ft 169 kts 86°
2026-05-06 22:34 18.58978 -65.33127 7011 ft 170 kts 86°
2026-05-06 22:34 18.59109 -65.31909 7011 ft 170 kts 86°
2026-05-06 22:34 18.59237 -65.30666 7008 ft 171 kts 86°
2026-05-06 22:34 18.59319 -65.29424 7006 ft 169 kts 97°
2026-05-06 22:35 18.59157 -65.28205 7013 ft 167 kts 100°
2026-05-06 22:35 18.59006 -65.26988 7012 ft 168 kts 98°
2026-05-06 22:35 18.58862 -65.25771 7013 ft 167 kts 98°
2026-05-06 22:35 18.58718 -65.24556 7016 ft 167 kts 99°
2026-05-06 22:36 18.58570 -65.23340 7012 ft 167 kts 99°
2026-05-06 22:36 18.58423 -65.22125 7013 ft 167 kts 99°
2026-05-06 22:36 18.58275 -65.20909 7015 ft 168 kts 99°
2026-05-06 22:36 18.58128 -65.19690 7013 ft 167 kts 99°
2026-05-06 22:37 18.57981 -65.18476 7012 ft 167 kts 99°
2026-05-06 22:37 18.57832 -65.17265 7012 ft 166 kts 100°
2026-05-06 22:37 18.57685 -65.16055 7013 ft 166 kts 99°
2026-05-06 22:37 18.57540 -65.14846 7013 ft 166 kts 98°
2026-05-06 22:38 18.57393 -65.13635 7011 ft 167 kts 98°
2026-05-06 22:38 18.57246 -65.12422 7013 ft 166 kts 98°
2026-05-06 22:38 18.57102 -65.11212 7014 ft 166 kts 99°
2026-05-06 22:38 18.56954 -65.10023 7012 ft 166 kts 99°
2026-05-06 22:39 18.56807 -65.08821 7018 ft 165 kts 100°
2026-05-06 22:39 18.56662 -65.07620 7017 ft 166 kts 98°
2026-05-06 22:39 18.56512 -65.06410 7017 ft 167 kts 98°
2026-05-06 22:39 18.56364 -65.05197 7019 ft 167 kts 99°
2026-05-06 22:40 18.56216 -65.03984 7017 ft 167 kts 99°
2026-05-06 22:40 18.56069 -65.02766 7016 ft 167 kts 99°
2026-05-06 22:40 18.55922 -65.01556 7017 ft 167 kts 98°
2026-05-06 22:40 18.55772 -65.00338 7016 ft 168 kts 99°
2026-05-06 22:41 18.55472 -64.97902 7015 ft 168 kts 98°
2026-05-06 22:41 18.55327 -64.96683 7016 ft 167 kts 99°
2026-05-06 22:41 18.55178 -64.95479 7016 ft 167 kts 100°
2026-05-06 22:42 18.55028 -64.94263 7017 ft 168 kts 98°
2026-05-06 22:42 18.54880 -64.93043 7015 ft 168 kts 99°
2026-05-06 22:42 18.54729 -64.91825 7016 ft 167 kts 98°
2026-05-06 22:42 18.54581 -64.90614 7014 ft 166 kts 99°
2026-05-06 22:43 18.54433 -64.89410 7015 ft 166 kts 99°
2026-05-06 22:43 18.54285 -64.88205 7016 ft 166 kts 98°
2026-05-06 22:43 18.54137 -64.86997 7012 ft 166 kts 99°
2026-05-06 22:43 18.53987 -64.85788 7014 ft 166 kts 100°
2026-05-06 22:44 18.53838 -64.84579 7015 ft 166 kts 100°
2026-05-06 22:44 18.53690 -64.83373 7014 ft 166 kts 99°
2026-05-06 22:44 18.53541 -64.82166 7013 ft 166 kts 99°
2026-05-06 22:44 18.53393 -64.80960 7015 ft 166 kts 99°
2026-05-06 22:45 18.53244 -64.79749 7013 ft 166 kts 98°
2026-05-06 22:45 18.53094 -64.78541 7015 ft 166 kts 99°
2026-05-06 22:45 18.52944 -64.77333 7017 ft 167 kts 100°
2026-05-06 22:45 18.52797 -64.76136 7016 ft 167 kts 99°
2026-05-06 22:46 18.52649 -64.74925 7021 ft 167 kts 99°
2026-05-06 22:46 18.52497 -64.73707 7017 ft 168 kts 99°
2026-05-06 22:46 18.52346 -64.72487 7021 ft 168 kts 100°
2026-05-06 22:46 18.52196 -64.71271 7021 ft 167 kts 99°
2026-05-06 22:47 18.52045 -64.70054 7024 ft 168 kts 99°
2026-05-06 22:47 18.51894 -64.68836 7023 ft 167 kts 99°
2026-05-06 22:47 18.51742 -64.67618 7027 ft 168 kts 99°
2026-05-06 22:47 18.51592 -64.66396 7024 ft 169 kts 99°
2026-05-06 22:48 18.51439 -64.65173 7026 ft 168 kts 99°
2026-05-06 22:48 18.51287 -64.63953 7026 ft 168 kts 99°
2026-05-06 22:48 18.51136 -64.62738 7024 ft 167 kts 99°
2026-05-06 22:48 18.50986 -64.61522 7023 ft 167 kts 99°
2026-05-06 22:49 18.50834 -64.60305 7021 ft 167 kts 99°
2026-05-06 22:49 18.50683 -64.59090 7021 ft 167 kts 100°
2026-05-06 22:49 18.50531 -64.57876 7021 ft 167 kts 99°
2026-05-06 22:49 18.50382 -64.56667 7024 ft 166 kts 100°
2026-05-06 22:50 18.50230 -64.55460 7018 ft 166 kts 99°
2026-05-06 22:50 18.50082 -64.54270 7020 ft 166 kts 100°
2026-05-06 22:50 18.49930 -64.53045 7014 ft 166 kts 99°
2026-05-06 22:50 18.49778 -64.51839 7019 ft 166 kts 100°
2026-05-06 22:51 18.49631 -64.50648 7015 ft 166 kts 100°
2026-05-06 22:51 18.49478 -64.49441 7021 ft 166 kts 100°
2026-05-06 22:51 18.49326 -64.48232 7021 ft 167 kts 99°
2026-05-06 22:51 18.49175 -64.47019 7022 ft 168 kts 99°
2026-05-06 22:52 18.49024 -64.45800 7022 ft 168 kts 99°
2026-05-06 22:52 18.48871 -64.44582 7026 ft 168 kts 99°
2026-05-06 22:52 18.48719 -64.43361 7024 ft 167 kts 99°
2026-05-06 22:52 18.48568 -64.42168 7026 ft 167 kts 99°
2026-05-06 22:53 18.48416 -64.40955 7024 ft 166 kts 99°
2026-05-06 22:53 18.48266 -64.39745 7025 ft 168 kts 99°
2026-05-06 22:53 18.48112 -64.38536 7023 ft 168 kts 99°
2026-05-06 22:53 18.47959 -64.37317 7024 ft 168 kts 99°
2026-05-06 22:54 18.47807 -64.36105 7024 ft 167 kts 100°
2026-05-06 22:54 18.47653 -64.34894 7021 ft 167 kts 99°
2026-05-06 22:54 18.47502 -64.33684 7019 ft 166 kts 98°
2026-05-06 22:54 18.47350 -64.32473 7019 ft 167 kts 98°
2026-05-06 22:55 18.47198 -64.31265 7020 ft 166 kts 98°
2026-05-06 22:55 18.47045 -64.30057 7025 ft 167 kts 99°
2026-05-06 22:55 18.46893 -64.28847 7022 ft 167 kts 98°
2026-05-06 22:55 18.46740 -64.27634 7023 ft 167 kts 99°
2026-05-06 22:56 18.46587 -64.26417 7022 ft 168 kts 98°
2026-05-06 22:56 18.46432 -64.25196 7022 ft 168 kts 99°
2026-05-06 22:56 18.46277 -64.23974 7022 ft 168 kts 98°
2026-05-06 22:56 18.46123 -64.22758 7021 ft 167 kts 99°
2026-05-06 22:57 18.45971 -64.21547 7017 ft 167 kts 99°
2026-05-06 22:57 18.45817 -64.20340 7018 ft 167 kts 99°
2026-05-06 22:57 18.45663 -64.19127 7016 ft 167 kts 98°
2026-05-06 22:57 18.45510 -64.17910 7015 ft 167 kts 99°
2026-05-06 22:58 18.45356 -64.16694 7021 ft 167 kts 99°
2026-05-06 22:58 18.45203 -64.15482 7022 ft 167 kts 98°
2026-05-06 22:58 18.45047 -64.14269 7020 ft 167 kts 99°
2026-05-06 22:58 18.44897 -64.13069 7020 ft 168 kts 98°
2026-05-06 22:59 18.44739 -64.11837 7019 ft 167 kts 99°
2026-05-06 22:59 18.44584 -64.10626 7020 ft 167 kts 99°
2026-05-06 22:59 18.44432 -64.09430 7021 ft 167 kts 99°
2026-05-06 22:59 18.44279 -64.08220 7021 ft 167 kts 99°
2026-05-06 23:00 18.44127 -64.07010 7019 ft 167 kts 98°
2026-05-06 23:00 18.43974 -64.05800 7021 ft 167 kts 99°
2026-05-06 23:00 18.43816 -64.04585 7023 ft 167 kts 98°
2026-05-06 23:00 18.43661 -64.03372 7024 ft 167 kts 99°
2026-05-06 23:01 18.43505 -64.02160 7023 ft 167 kts 98°
2026-05-06 23:01 18.43351 -64.00946 7022 ft 167 kts 99°
2026-05-06 23:01 18.43197 -63.99730 7022 ft 168 kts 98°
2026-05-06 23:01 18.43041 -63.98514 7019 ft 168 kts 98°
2026-05-06 23:02 18.42885 -63.97297 7019 ft 167 kts 98°
2026-05-06 23:02 18.42731 -63.96086 7020 ft 167 kts 98°
2026-05-06 23:02 18.42577 -63.94879 7018 ft 166 kts 98°
2026-05-06 23:02 18.42422 -63.93671 7019 ft 166 kts 99°
2026-05-06 23:03 18.42267 -63.92465 7016 ft 166 kts 98°
2026-05-06 23:03 18.42112 -63.91261 7018 ft 166 kts 98°
2026-05-06 23:03 18.41958 -63.90053 7018 ft 167 kts 98°
2026-05-06 23:03 18.41803 -63.88841 7019 ft 167 kts 99°
2026-05-06 23:04 18.41648 -63.87629 7018 ft 167 kts 98°
2026-05-06 23:04 18.41491 -63.86418 7024 ft 167 kts 98°
2026-05-06 23:04 18.41336 -63.85202 7020 ft 168 kts 98°
2026-05-06 23:04 18.41179 -63.83983 7023 ft 168 kts 98°
2026-05-06 23:05 18.41025 -63.82784 7022 ft 167 kts 98°
2026-05-06 23:05 18.40869 -63.81576 7025 ft 166 kts 98°
2026-05-06 23:05 18.40714 -63.80369 7024 ft 166 kts 98°
2026-05-06 23:05 18.40559 -63.79161 7022 ft 167 kts 98°
2026-05-06 23:06 18.40402 -63.77947 7022 ft 167 kts 98°
2026-05-06 23:06 18.40246 -63.76740 7021 ft 167 kts 98°
2026-05-06 23:06 18.40089 -63.75521 7025 ft 167 kts 98°
2026-05-06 23:06 18.39933 -63.74311 7024 ft 167 kts 98°
2026-05-06 23:07 18.39776 -63.73099 7025 ft 167 kts 98°
2026-05-06 23:07 18.39619 -63.71886 7025 ft 167 kts 98°
2026-05-06 23:07 18.39462 -63.70673 7025 ft 167 kts 98°
2026-05-06 23:07 18.39359 -63.69874 7026 ft 167 kts 98°
2026-05-06 23:08 18.39203 -63.68666 7025 ft 166 kts 98°
2026-05-06 23:08 18.39048 -63.67459 7022 ft 164 kts 97°
2026-05-06 23:08 18.38739 -63.66319 7015 ft 163 kts 120°
2026-05-06 23:08 18.38099 -63.65327 6976 ft 165 kts 123°
2026-05-06 23:09 18.37473 -63.64310 6932 ft 166 kts 122°
2026-05-06 23:09 18.36842 -63.63295 6904 ft 167 kts 123°
2026-05-06 23:09 18.36195 -63.62247 6711 ft 171 kts 122°
2026-05-06 23:09 18.35546 -63.61194 6436 ft 173 kts 123°
2026-05-06 23:10 18.34889 -63.60145 6222 ft 169 kts 123°
2026-05-06 23:10 18.34246 -63.59118 5974 ft 169 kts 124°
2026-05-06 23:10 18.33599 -63.58081 5730 ft 168 kts 123°
2026-05-06 23:10 18.32959 -63.57057 5504 ft 168 kts 124°
2026-05-06 23:11 18.32318 -63.56027 5263 ft 166 kts 123°
2026-05-06 23:11 18.31693 -63.55021 4990 ft 165 kts 124°
2026-05-06 23:11 18.31064 -63.54018 4719 ft 164 kts 126°
2026-05-06 23:11 18.30240 -63.53227 4327 ft 163 kts 145°
2026-05-06 23:12 18.29307 -63.52552 3856 ft 162 kts 142°
2026-05-06 23:12 18.28405 -63.51828 3358 ft 163 kts 141°
2026-05-06 23:12 18.27516 -63.51092 2897 ft 160 kts 139°
2026-05-06 23:12 18.26663 -63.50387 2619 ft 147 kts 139°
2026-05-06 23:13 18.25917 -63.49770 2604 ft 128 kts 139°
2026-05-06 23:13 18.25259 -63.49226 2595 ft 114 kts 139°
2026-05-06 23:13 18.24662 -63.48729 2597 ft 106 kts 139°
2026-05-06 23:13 18.24049 -63.48228 2616 ft 119 kts 139°
2026-05-06 23:14 18.23368 -63.47661 2635 ft 130 kts 138°
2026-05-06 23:14 18.22626 -63.47043 2634 ft 142 kts 138°
2026-05-06 23:14 18.21828 -63.46381 2629 ft 149 kts 138°
2026-05-06 23:14 18.21000 -63.45692 2626 ft 154 kts 138°
2026-05-06 23:15 18.20166 -63.45001 2617 ft 156 kts 139°
2026-05-06 23:15 18.19301 -63.44285 2603 ft 156 kts 138°
2026-05-06 23:15 18.18454 -63.43579 2546 ft 158 kts 138°
2026-05-06 23:15 18.17592 -63.42868 2546 ft 156 kts 137°
2026-05-06 23:16 18.16747 -63.42166 2540 ft 155 kts 139°
2026-05-06 23:16 18.15896 -63.41459 2545 ft 157 kts 139°
2026-05-06 23:16 18.15027 -63.40744 2548 ft 160 kts 140°
2026-05-06 23:16 18.14156 -63.40022 2552 ft 159 kts 139°
2026-05-06 23:17 18.13286 -63.39300 2542 ft 159 kts 138°
2026-05-06 23:17 18.12421 -63.38586 2544 ft 157 kts 138°
2026-05-06 23:17 18.11568 -63.37877 2546 ft 156 kts 139°
2026-05-06 23:17 18.10711 -63.37169 2546 ft 158 kts 139°
2026-05-06 23:18 18.09842 -63.36450 2548 ft 159 kts 139°
2026-05-06 23:18 18.08967 -63.35727 2545 ft 160 kts 138°
2026-05-06 23:18 18.08099 -63.35008 2542 ft 158 kts 138°
2026-05-06 23:18 18.07243 -63.34301 2564 ft 155 kts 138°
2026-05-06 23:19 18.06404 -63.33606 2595 ft 153 kts 139°
2026-05-06 23:19 18.05558 -63.32905 2597 ft 157 kts 139°
2026-05-06 23:19 18.04695 -63.32194 2601 ft 158 kts 139°
2026-05-06 23:19 18.03841 -63.31486 2605 ft 159 kts 139°
2026-05-06 23:20 18.02973 -63.30770 2605 ft 159 kts 139°
2026-05-06 23:20 18.02128 -63.30027 2600 ft 157 kts 129°
2026-05-06 23:20 18.01652 -63.29015 2608 ft 155 kts 103°
2026-05-06 23:20 18.01649 -63.27887 2613 ft 157 kts 82°
2026-05-06 23:21 18.01827 -63.26766 2609 ft 155 kts 82°
2026-05-06 23:21 18.01981 -63.25660 2569 ft 150 kts 82°
2026-05-06 23:21 18.02136 -63.24600 2383 ft 146 kts 83°
2026-05-06 23:21 18.02285 -63.23570 2197 ft 140 kts 83°
2026-05-06 23:22 18.02427 -63.22569 2009 ft 135 kts 83°
2026-05-06 23:22 18.02562 -63.21625 1839 ft 128 kts 83°
2026-05-06 23:22 18.02693 -63.20707 1710 ft 123 kts 84°
2026-05-06 23:22 18.02815 -63.19863 1698 ft 110 kts 85°
2026-05-06 23:23 18.02922 -63.19085 1614 ft 108 kts 82°
2026-05-06 23:23 18.03060 -63.18298 1445 ft 113 kts 80°
2026-05-06 23:23 18.03226 -63.17492 1326 ft 115 kts 79°
2026-05-06 23:23 18.03422 -63.16745 1312 ft 98 kts 80°
2026-05-06 23:24 18.03555 -63.16067 1249 ft 86 kts 83°
2026-05-06 23:24 18.03587 -63.15445 1071 ft 87 kts 89°
2026-05-06 23:24 18.03629 -63.14821 921 ft 81 kts 87°
2026-05-06 23:24 18.03672 -63.14225 752 ft 81 kts 89°
2026-05-06 23:25 18.03728 -63.13657 535 ft 77 kts 85°
2026-05-06 23:25 18.03775 -63.13094 429 ft 74 kts 82°
2026-05-06 23:25 18.03861 -63.12540 261 ft 79 kts 81°
2026-05-06 23:25 18.03945 -63.11967 110 ft 79 kts 82°
2026-05-06 23:26 18.04023 -63.11414 30 ft 71 kts 80°
2026-05-06 23:26 18.04076 -63.10989 26 ft 36 kts 84°
2026-05-06 23:26 18.04124 -63.10989 27 ft 15 kts 323°
2026-05-06 23:26 18.04160 -63.11080 27 ft 16 kts 263°
2026-05-06 23:27 18.04145 -63.11197 27 ft 0 kts 260°
2026-05-06 23:27 18.04144 -63.11198 27 ft 2 kts 260°
2026-05-06 23:27 18.04143 -63.11210 27 ft 6 kts 262°
2026-05-06 23:28 18.04140 -63.11231 27 ft 10 kts 262°
2026-05-06 23:28 18.04187 -63.11307 27 ft 19 kts 350°
2026-05-06 23:28 18.04226 -63.11439 27 ft 27 kts 257°
2026-05-06 23:29 18.04203 -63.11498 27 ft 28 kts 230°
2026-05-06 23:29 18.04187 -63.11556 27 ft 5 kts 333°
2026-05-06 23:29 18.04204 -63.11564 27 ft 0 kts 326°
2026-05-06 23:29 18.04208 -63.11567 27 ft 4 kts 327°
2026-05-06 23:30 18.04231 -63.11586 27 ft 0 kts 319°